TimeCST,TemperatureF,Dew PointF,Humidity,Sea Level PressureIn,VisibilityMPH,Wind Direction,Wind SpeedMPH,Gust SpeedMPH,PrecipitationIn,Events,Conditions,WindDirDegrees,DateUTC
12:53 AM,51.1,39.9,66,30.25,10.0,Calm,Calm,-,N/A,,Mostly Cloudy,0,2012-11-19 06:53:00
1:53 AM,51.1,39.9,66,30.24,10.0,ENE,5.8,-,N/A,,Mostly Cloudy,70,2012-11-19 07:53:00
2:53 AM,52.0,39.9,63,30.25,10.0,NE,4.6,-,N/A,,Overcast,40,2012-11-19 08:53:00
3:53 AM,50.0,42.1,74,30.24,10.0,ENE,6.9,-,0.00,,Overcast,60,2012-11-19 09:53:00
4:53 AM,51.1,42.1,71,30.25,10.0,ENE,4.6,-,0.01,Rain,Light Rain,60,2012-11-19 10:53:00
5:53 AM,50.0,44.1,80,30.24,10.0,ENE,5.8,-,0.00,,Overcast,60,2012-11-19 11:53:00
6:53 AM,51.1,43.0,74,30.24,10.0,ENE,5.8,-,N/A,,Overcast,70,2012-11-19 12:53:00
7:53 AM,50.0,44.1,80,30.25,5.0,ENE,6.9,-,0.03,Rain,Light Rain,60,2012-11-19 13:53:00
8:53 AM,51.1,46.0,83,30.26,10.0,ENE,5.8,-,0.00,,Overcast,70,2012-11-19 14:53:00
9:53 AM,52.0,46.0,80,30.27,10.0,ENE,8.1,-,N/A,,Overcast,70,2012-11-19 15:53:00
10:53 AM,54.0,46.0,75,30.24,10.0,East,9.2,-,N/A,,Overcast,80,2012-11-19 16:53:00
11:53 AM,57.0,46.0,67,30.21,10.0,ENE,9.2,-,N/A,,Overcast,70,2012-11-19 17:53:00
12:53 PM,57.9,46.0,65,30.19,10.0,ENE,10.4,-,N/A,,Overcast,60,2012-11-19 18:53:00
1:53 PM,60.1,46.0,60,30.18,10.0,ENE,10.4,-,N/A,,Overcast,60,2012-11-19 19:53:00
2:53 PM,59.0,46.9,64,30.16,10.0,East,6.9,-,0.00,,Partly Cloudy,100,2012-11-19 20:53:00
3:53 PM,59.0,46.0,62,30.17,10.0,East,10.4,-,N/A,,Mostly Cloudy,80,2012-11-19 21:53:00
4:53 PM,57.0,45.0,64,30.16,10.0,East,6.9,-,N/A,,Mostly Cloudy,90,2012-11-19 22:53:00
5:53 PM,53.1,45.0,74,30.17,10.0,ENE,6.9,-,N/A,,Clear,70,2012-11-19 23:53:00
6:53 PM,51.1,45.0,80,30.18,10.0,ENE,3.5,-,N/A,,Clear,70,2012-11-20 00:53:00
7:53 PM,51.1,45.0,80,30.19,10.0,NE,5.8,-,N/A,,Clear,40,2012-11-20 01:53:00
8:53 PM,50.0,44.6,82,30.19,10.0,NNE,3.5,-,N/A,,Clear,20,2012-11-20 02:53:00
9:53 PM,48.9,44.1,83,30.19,10.0,Calm,Calm,-,N/A,,Clear,0,2012-11-20 03:53:00
10:53 PM,48.9,44.1,83,30.19,10.0,Calm,Calm,-,N/A,,Clear,0,2012-11-20 04:53:00
11:53 PM,46.9,43.0,86,30.19,10.0,NE,3.5,-,N/A,,Clear,50,2012-11-20 05:53:00